FDX15 KLAX-PHNL

Flight info

Callsign FDX15
Flight time N/A
Altitude 30000
Route SUMMR2 DINTY DUETS 3335N12855W DADIE R576 DIALO/N0497F320 R576 DENNS MAGGI3
Aircraft B77L/H-SDE1E2E3FGHIJ2J3J4J5M1RWXY/LB1D1

Departure

Time 2026-04-20 17:37
Airport Los Angeles International Airport (KLAX)

Arrival

Time N/A
Airport Daniel K. Inouye International Airport (PHNL)
Time Latitude Longitude Altitude Speed Heading
2026-04-20 17:00 33.93411 -118.38773 100 ft 0 kts 174°
2026-04-20 17:24 33.93421 -118.38774 99 ft 2 kts 171°
2026-04-20 17:24 33.93437 -118.38777 100 ft 2 kts 167°
2026-04-20 17:24 33.93452 -118.38780 101 ft 2 kts 166°
2026-04-20 17:25 33.93468 -118.38785 101 ft 2 kts 164°
2026-04-20 17:25 33.93484 -118.38791 100 ft 2 kts 161°
2026-04-20 17:25 33.93500 -118.38797 100 ft 2 kts 156°
2026-04-20 17:25 33.93515 -118.38806 100 ft 2 kts 149°
2026-04-20 17:26 33.93528 -118.38817 102 ft 2 kts 140°
2026-04-20 17:26 33.93540 -118.38831 102 ft 2 kts 126°
2026-04-20 17:26 33.93548 -118.38848 102 ft 2 kts 109°
2026-04-20 17:26 33.93552 -118.38867 103 ft 2 kts 91°
2026-04-20 17:27 33.93552 -118.38877 102 ft 0 kts 83°
2026-04-20 17:29 33.93553 -118.38866 103 ft 5 kts 83°
2026-04-20 17:29 33.93561 -118.38782 104 ft 12 kts 83°
2026-04-20 17:30 33.93571 -118.38686 105 ft 12 kts 83°
2026-04-20 17:30 33.93581 -118.38591 106 ft 12 kts 83°
2026-04-20 17:30 33.93591 -118.38495 104 ft 12 kts 82°
2026-04-20 17:30 33.93601 -118.38399 104 ft 12 kts 83°
2026-04-20 17:31 33.93609 -118.38323 107 ft 5 kts 83°
2026-04-20 17:31 33.93617 -118.38290 106 ft 4 kts 59°
2026-04-20 17:31 33.93626 -118.38285 107 ft 0 kts 22°
2026-04-20 17:35 33.93628 -118.38284 107 ft 3 kts 22°
2026-04-20 17:35 33.93659 -118.38279 108 ft 5 kts 358°
2026-04-20 17:35 33.93692 -118.38284 112 ft 5 kts 353°
2026-04-20 17:36 33.93724 -118.38294 111 ft 5 kts 329°
2026-04-20 17:36 33.93732 -118.38331 111 ft 5 kts 265°
2026-04-20 17:36 33.93730 -118.38352 111 ft 3 kts 263°
2026-04-20 17:36 33.93709 -118.38563 113 ft 58 kts 263°
2026-04-20 17:37 33.93630 -118.39323 113 ft 123 kts 263°
2026-04-20 17:37 33.93501 -118.40564 117 ft 175 kts 263°
2026-04-20 17:37 33.93350 -118.42122 391 ft 189 kts 262°
2026-04-20 17:37 33.93191 -118.43704 965 ft 191 kts 261°
2026-04-20 17:38 33.93021 -118.45300 1562 ft 193 kts 263°
2026-04-20 17:38 33.92923 -118.46911 2053 ft 194 kts 269°
2026-04-20 17:38 33.92893 -118.48585 2226 ft 211 kts 267°
2026-04-20 17:38 33.92840 -118.50456 2390 ft 233 kts 267°
2026-04-20 17:39 33.92687 -118.52425 2670 ft 248 kts 261°
2026-04-20 17:39 33.92454 -118.54551 3067 ft 261 kts 263°
2026-04-20 17:39 33.92266 -118.56768 3538 ft 272 kts 264°
2026-04-20 17:39 33.92096 -118.59018 4317 ft 268 kts 263°
2026-04-20 17:40 33.91914 -118.61278 4944 ft 273 kts 263°
2026-04-20 17:40 33.91741 -118.63555 5618 ft 273 kts 265°
2026-04-20 17:40 33.91705 -118.65850 6297 ft 275 kts 268°
2026-04-20 17:40 33.91715 -118.68163 6908 ft 277 kts 268°
2026-04-20 17:41 33.91726 -118.70491 7516 ft 279 kts 268°
2026-04-20 17:41 33.91730 -118.72839 8123 ft 281 kts 267°
2026-04-20 17:41 33.91728 -118.75193 8735 ft 282 kts 267°
2026-04-20 17:41 33.91721 -118.77567 9333 ft 285 kts 267°
2026-04-20 17:42 33.91711 -118.79963 9929 ft 287 kts 266°
2026-04-20 17:42 33.91699 -118.82385 10372 ft 295 kts 266°
2026-04-20 17:42 33.91711 -118.84939 10510 ft 315 kts 269°
2026-04-20 17:42 33.91793 -118.87661 10666 ft 335 kts 270°
2026-04-20 17:43 33.91894 -118.90509 10826 ft 355 kts 270°
2026-04-20 17:43 33.91996 -118.93553 11149 ft 369 kts 270°
2026-04-20 17:43 33.92092 -118.96681 11696 ft 376 kts 269°
2026-04-20 17:43 33.92200 -118.99845 12388 ft 378 kts 272°
2026-04-20 17:44 33.92831 -119.02956 12963 ft 391 kts 293°
2026-04-20 17:44 33.94261 -119.05752 13594 ft 395 kts 301°
2026-04-20 17:44 33.95774 -119.08552 14199 ft 400 kts 299°
2026-04-20 17:44 33.97264 -119.11390 14888 ft 402 kts 298°
2026-04-20 17:45 33.98750 -119.14266 15592 ft 405 kts 298°
2026-04-20 17:45 34.00241 -119.17153 16253 ft 406 kts 299°
2026-04-20 17:45 34.02041 -119.19781 16672 ft 420 kts 317°
2026-04-20 17:45 34.04417 -119.21856 17133 ft 426 kts 322°
2026-04-20 17:46 34.06889 -119.23879 17706 ft 430 kts 322°
2026-04-20 17:46 34.09374 -119.25925 18361 ft 433 kts 322°
2026-04-20 17:46 34.11853 -119.28000 18910 ft 435 kts 321°
2026-04-20 17:46 34.14340 -119.30111 19468 ft 438 kts 321°
2026-04-20 17:47 34.16831 -119.32245 20026 ft 440 kts 321°
2026-04-20 17:47 34.19333 -119.34400 20569 ft 443 kts 320°
2026-04-20 17:47 34.21850 -119.36575 21103 ft 446 kts 320°
2026-04-20 17:47 34.24377 -119.38759 21614 ft 449 kts 320°
2026-04-20 17:48 34.26888 -119.40931 22139 ft 451 kts 320°
2026-04-20 17:48 34.29457 -119.43153 22645 ft 454 kts 320°
2026-04-20 17:48 34.32033 -119.45382 23150 ft 457 kts 320°
2026-04-20 17:48 34.34636 -119.47635 23646 ft 460 kts 320°
2026-04-20 17:49 34.37199 -119.49947 24007 ft 457 kts 314°
2026-04-20 17:49 34.39188 -119.52902 24228 ft 452 kts 294°
2026-04-20 17:49 34.40326 -119.56412 24630 ft 446 kts 280°
2026-04-20 17:49 34.40760 -119.60106 25064 ft 441 kts 266°
2026-04-20 17:50 34.40569 -119.63800 25420 ft 441 kts 262°
2026-04-20 17:50 34.40269 -119.67515 25732 ft 445 kts 261°
2026-04-20 17:50 34.39949 -119.71261 26132 ft 448 kts 261°
2026-04-20 17:50 34.39637 -119.75027 26572 ft 451 kts 261°
2026-04-20 17:51 34.39339 -119.78809 26953 ft 454 kts 262°
2026-04-20 17:51 34.39055 -119.82588 27314 ft 457 kts 262°
2026-04-20 17:51 34.38776 -119.86428 27675 ft 460 kts 262°
2026-04-20 17:51 34.38498 -119.90301 28032 ft 463 kts 262°
2026-04-20 17:52 34.38219 -119.94208 28385 ft 466 kts 262°
2026-04-20 17:52 34.37938 -119.98126 28739 ft 469 kts 262°
2026-04-20 17:52 34.37654 -120.02075 29073 ft 471 kts 262°
2026-04-20 17:52 34.37366 -120.06038 29391 ft 474 kts 262°
2026-04-20 17:53 34.37076 -120.10020 29683 ft 477 kts 262°
2026-04-20 17:53 34.36781 -120.14028 29965 ft 479 kts 262°
2026-04-20 17:53 34.36483 -120.18067 30032 ft 483 kts 262°
2026-04-20 17:54 34.35888 -120.26106 30064 ft 479 kts 262°
2026-04-20 17:54 34.35290 -120.34105 30074 ft 477 kts 262°
2026-04-20 17:55 34.34685 -120.42108 30079 ft 477 kts 262°
2026-04-20 17:55 34.33316 -120.49854 30070 ft 466 kts 242°
2026-04-20 17:56 34.30397 -120.56869 30081 ft 469 kts 242°
2026-04-20 17:56 34.27502 -120.63958 30080 ft 472 kts 242°
2026-04-20 17:57 34.24638 -120.71127 30082 ft 474 kts 242°
2026-04-20 17:57 34.21786 -120.78320 30074 ft 475 kts 243°
2026-04-20 17:58 34.18926 -120.85523 30069 ft 475 kts 242°
2026-04-20 17:58 34.16066 -120.92704 30069 ft 473 kts 242°
2026-04-20 17:59 34.13207 -120.99860 30063 ft 472 kts 242°
2026-04-20 17:59 34.10371 -121.06943 30069 ft 471 kts 242°
2026-04-20 18:00 34.07515 -121.14060 30067 ft 471 kts 242°
2026-04-20 18:00 34.04656 -121.21170 30068 ft 471 kts 242°
2026-04-20 18:01 34.01793 -121.28275 30066 ft 471 kts 242°
2026-04-20 18:01 33.98928 -121.35372 30061 ft 471 kts 242°
2026-04-20 18:02 33.96057 -121.42467 30064 ft 471 kts 242°
2026-04-20 18:02 33.93179 -121.49564 30064 ft 472 kts 242°
2026-04-20 18:03 33.90298 -121.56657 30056 ft 472 kts 242°
2026-04-20 18:03 33.87431 -121.63697 30058 ft 471 kts 242°
2026-04-20 18:04 33.84537 -121.70791 30053 ft 471 kts 242°
2026-04-20 18:04 33.81649 -121.77854 30051 ft 471 kts 242°
2026-04-20 18:05 33.77796 -121.87256 30047 ft 470 kts 242°
2026-04-20 18:05 33.74430 -121.95449 30044 ft 470 kts 242°
2026-04-20 18:06 33.71998 -122.01356 30039 ft 470 kts 242°
2026-04-20 18:06 33.69109 -122.08359 30040 ft 470 kts 242°
2026-04-20 18:07 33.66205 -122.15384 30041 ft 470 kts 242°
2026-04-20 18:07 33.63294 -122.22413 30039 ft 470 kts 242°
2026-04-20 18:08 33.60378 -122.29440 30034 ft 470 kts 242°
2026-04-20 18:08 33.57474 -122.36424 30037 ft 470 kts 242°
2026-04-20 18:09 33.54553 -122.43436 30035 ft 470 kts 242°
2026-04-20 18:09 33.51625 -122.50451 30033 ft 470 kts 242°
2026-04-20 18:10 33.48696 -122.57464 30028 ft 470 kts 243°
2026-04-20 18:10 33.46679 -122.64936 30219 ft 476 kts 255°
2026-04-20 18:11 33.45957 -122.68745 30598 ft 474 kts 255°
2026-04-20 18:11 33.45245 -122.72603 31018 ft 472 kts 255°
2026-04-20 18:11 33.44525 -122.76425 31418 ft 470 kts 255°
2026-04-20 18:11 33.43782 -122.80231 31774 ft 469 kts 254°
2026-04-20 18:12 33.43019 -122.84032 31958 ft 470 kts 254°
2026-04-20 18:12 33.42238 -122.87837 31989 ft 471 kts 254°
2026-04-20 18:12 33.40657 -122.95433 32016 ft 469 kts 253°
2026-04-20 18:13 33.39079 -123.02976 32017 ft 466 kts 253°
2026-04-20 18:13 33.37511 -123.10462 32019 ft 465 kts 253°
2026-04-20 18:14 33.35933 -123.17981 32021 ft 466 kts 253°
2026-04-20 18:14 33.34351 -123.25495 32021 ft 466 kts 253°
2026-04-20 18:15 33.32763 -123.33013 32019 ft 466 kts 253°
2026-04-20 18:15 33.31172 -123.40521 32013 ft 466 kts 253°
2026-04-20 18:16 33.29582 -123.48005 32015 ft 466 kts 253°
2026-04-20 18:16 33.27980 -123.55518 32013 ft 465 kts 253°
2026-04-20 18:17 33.26376 -123.63016 32010 ft 466 kts 253°
2026-04-20 18:17 33.24768 -123.70510 32012 ft 465 kts 253°
2026-04-20 18:18 33.23156 -123.77999 32012 ft 465 kts 253°
2026-04-20 18:18 33.21553 -123.85424 32001 ft 464 kts 253°
2026-04-20 18:19 33.19928 -123.92926 32005 ft 463 kts 253°
2026-04-20 18:19 33.18320 -124.00322 32014 ft 463 kts 253°
2026-04-20 18:20 33.16699 -124.07763 32018 ft 462 kts 253°
2026-04-20 18:20 33.15075 -124.15190 32005 ft 462 kts 253°
2026-04-20 18:21 33.13448 -124.22607 32004 ft 462 kts 253°
2026-04-20 18:21 33.11817 -124.30023 32007 ft 462 kts 253°
2026-04-20 18:22 33.10183 -124.37432 32010 ft 461 kts 253°
2026-04-20 18:22 33.08547 -124.44829 32005 ft 461 kts 253°
2026-04-20 18:23 33.07640 -124.52384 32010 ft 465 kts 265°
2026-04-20 18:23 33.08006 -124.60123 32012 ft 470 kts 275°
2026-04-20 18:24 33.09061 -124.67812 32006 ft 470 kts 276°
2026-04-20 18:24 33.10145 -124.75516 32001 ft 470 kts 276°
2026-04-20 18:25 33.11184 -124.83152 31999 ft 469 kts 275°
2026-04-20 18:25 33.12203 -124.90833 32004 ft 468 kts 275°
2026-04-20 18:26 33.13211 -124.98521 32000 ft 468 kts 275°
2026-04-20 18:26 33.14213 -125.06193 31999 ft 467 kts 275°
2026-04-20 18:27 33.15208 -125.13848 31997 ft 467 kts 275°
2026-04-20 18:27 33.16199 -125.21501 31996 ft 466 kts 275°
2026-04-20 18:28 33.17178 -125.29102 31992 ft 465 kts 275°
2026-04-20 18:28 33.18157 -125.36734 31990 ft 465 kts 274°
2026-04-20 18:29 33.19130 -125.44364 31992 ft 464 kts 274°
2026-04-20 18:29 33.20097 -125.51982 31996 ft 464 kts 274°
2026-04-20 18:30 33.21060 -125.59605 32000 ft 463 kts 274°
2026-04-20 18:30 33.22016 -125.67217 31989 ft 463 kts 274°
2026-04-20 18:31 33.22966 -125.74816 31991 ft 462 kts 274°
2026-04-20 18:31 33.23904 -125.82351 31982 ft 461 kts 274°
2026-04-20 18:32 33.24842 -125.89932 31988 ft 460 kts 273°
2026-04-20 18:32 33.25773 -125.97497 31992 ft 459 kts 273°
2026-04-20 18:33 33.26697 -126.05037 31979 ft 458 kts 273°
2026-04-20 18:33 33.27615 -126.12568 31978 ft 457 kts 273°
2026-04-20 18:34 33.28522 -126.20051 31980 ft 456 kts 273°
2026-04-20 18:34 33.29427 -126.27560 31980 ft 456 kts 272°
2026-04-20 18:35 33.30327 -126.35061 31977 ft 456 kts 272°
2026-04-20 18:35 33.31222 -126.42560 31979 ft 455 kts 272°
2026-04-20 18:36 33.32111 -126.50051 31979 ft 455 kts 272°
2026-04-20 18:36 33.32998 -126.57554 31980 ft 455 kts 272°
2026-04-20 18:37 33.33878 -126.65052 31978 ft 455 kts 272°
2026-04-20 18:37 33.34750 -126.72507 31978 ft 455 kts 272°
2026-04-20 18:38 33.35619 -126.79987 31981 ft 454 kts 271°
2026-04-20 18:38 33.36485 -126.87477 31977 ft 453 kts 271°
2026-04-20 18:39 33.37345 -126.94951 31979 ft 453 kts 271°
2026-04-20 18:39 33.38198 -127.02407 31979 ft 452 kts 271°
2026-04-20 18:40 33.39039 -127.09803 31980 ft 451 kts 271°
2026-04-20 18:40 33.39880 -127.17233 31977 ft 450 kts 271°
2026-04-20 18:41 33.40713 -127.24639 31978 ft 448 kts 271°
2026-04-20 18:41 33.41540 -127.32023 31975 ft 447 kts 271°
2026-04-20 18:42 33.42359 -127.39381 31974 ft 445 kts 270°
2026-04-20 18:42 33.43170 -127.46715 31975 ft 444 kts 270°
2026-04-20 18:43 33.43970 -127.53981 31977 ft 442 kts 270°
2026-04-20 18:43 33.44769 -127.61284 31973 ft 441 kts 270°
2026-04-20 18:44 33.45562 -127.68566 31971 ft 440 kts 270°
2026-04-20 18:44 33.46347 -127.75823 31969 ft 439 kts 270°
2026-04-20 18:45 33.47127 -127.83068 31976 ft 438 kts 270°
2026-04-20 18:45 33.47903 -127.90316 31970 ft 438 kts 270°
2026-04-20 18:46 33.48674 -127.97559 31972 ft 438 kts 270°
2026-04-20 18:46 33.49434 -128.04746 31970 ft 437 kts 270°
2026-04-20 18:47 33.50195 -128.11969 31969 ft 437 kts 270°
2026-04-20 18:47 33.50952 -128.19201 31965 ft 436 kts 270°
2026-04-20 18:48 33.51702 -128.26411 31968 ft 436 kts 270°
2026-04-20 18:48 33.52449 -128.33626 31966 ft 435 kts 270°
2026-04-20 18:49 33.53185 -128.40785 31960 ft 435 kts 270°
2026-04-20 18:49 33.53920 -128.47971 31953 ft 434 kts 270°
2026-04-20 18:50 33.54651 -128.55152 31961 ft 433 kts 270°
2026-04-20 18:50 33.55374 -128.62313 31957 ft 432 kts 270°
2026-04-20 18:51 33.56093 -128.69465 31956 ft 432 kts 270°
2026-04-20 18:51 33.56808 -128.76620 31955 ft 431 kts 270°
2026-04-20 18:52 33.57512 -128.83705 31958 ft 430 kts 270°
2026-04-20 18:52 33.57673 -128.87237 31939 ft 418 kts 259°
2026-04-20 18:52 33.57095 -128.90616 31960 ft 411 kts 249°
2026-04-20 18:53 33.54655 -128.96809 31944 ft 414 kts 232°
2026-04-20 18:53 33.51481 -129.01134 31959 ft 418 kts 229°
2026-04-20 18:54 33.47558 -129.06321 31960 ft 422 kts 229°
2026-04-20 18:54 33.43631 -129.11557 31943 ft 422 kts 230°
2026-04-20 18:55 33.39732 -129.16795 31946 ft 420 kts 230°
2026-04-20 18:55 33.35860 -129.22008 31949 ft 418 kts 230°
2026-04-20 18:56 33.32009 -129.27191 31949 ft 416 kts 230°
2026-04-20 18:56 33.28170 -129.32349 31946 ft 415 kts 230°
2026-04-20 18:57 33.24334 -129.37495 31958 ft 415 kts 230°
2026-04-20 18:57 33.20515 -129.42612 31961 ft 415 kts 230°
2026-04-20 18:58 33.16662 -129.47766 31957 ft 417 kts 230°
2026-04-20 18:58 33.12796 -129.52930 31954 ft 418 kts 231°
2026-04-20 18:59 33.08918 -129.58103 31961 ft 419 kts 231°
2026-04-20 18:59 33.05023 -129.63290 31961 ft 420 kts 231°
2026-04-20 19:00 33.01117 -129.68485 31962 ft 420 kts 231°
2026-04-20 19:00 32.97209 -129.73675 31961 ft 421 kts 231°
2026-04-20 19:01 32.93297 -129.78862 31954 ft 422 kts 231°
2026-04-20 19:01 32.89398 -129.84025 31961 ft 422 kts 231°
2026-04-20 19:02 32.85472 -129.89216 31972 ft 422 kts 231°
2026-04-20 19:02 32.81537 -129.94413 31964 ft 422 kts 231°
2026-04-20 19:03 32.77601 -129.99602 31965 ft 422 kts 231°
2026-04-20 19:03 32.73661 -130.04791 31964 ft 423 kts 231°
2026-04-20 19:04 32.69716 -130.09978 31966 ft 423 kts 231°
2026-04-20 19:04 32.65793 -130.15128 31966 ft 423 kts 232°
2026-04-20 19:05 32.61836 -130.20316 31970 ft 424 kts 232°
2026-04-20 19:05 32.57875 -130.25502 31974 ft 424 kts 232°
2026-04-20 19:06 32.53907 -130.30690 31973 ft 425 kts 232°
2026-04-20 19:06 32.49931 -130.35882 31981 ft 426 kts 232°
2026-04-20 19:07 32.45938 -130.41087 31972 ft 426 kts 232°
2026-04-20 19:07 32.41941 -130.46290 31976 ft 427 kts 232°
2026-04-20 19:08 32.35933 -130.54098 31973 ft 428 kts 232°
2026-04-20 19:09 32.31945 -130.59271 31981 ft 429 kts 232°
2026-04-20 19:09 32.27918 -130.64487 31989 ft 429 kts 232°
2026-04-20 19:10 32.23894 -130.69692 31982 ft 429 kts 232°
2026-04-20 19:10 32.19858 -130.74905 31986 ft 430 kts 232°
2026-04-20 19:11 32.15822 -130.80111 31986 ft 430 kts 233°
2026-04-20 19:11 32.11780 -130.85318 31986 ft 430 kts 233°
2026-04-20 19:12 32.07730 -130.90527 31988 ft 431 kts 233°
2026-04-20 19:12 32.03677 -130.95733 31987 ft 431 kts 233°
2026-04-20 19:13 31.99620 -131.00936 31989 ft 431 kts 233°
2026-04-20 19:13 31.95580 -131.06111 31989 ft 432 kts 233°
2026-04-20 19:14 31.91509 -131.11318 31999 ft 433 kts 233°
2026-04-20 19:14 31.87422 -131.16538 32002 ft 433 kts 233°
2026-04-20 19:15 31.83334 -131.21752 31999 ft 434 kts 233°
2026-04-20 19:15 31.79232 -131.26976 31999 ft 434 kts 233°
2026-04-20 19:16 31.75136 -131.32185 31999 ft 435 kts 233°
2026-04-20 19:16 31.71051 -131.37374 32001 ft 435 kts 233°
2026-04-20 19:17 31.66929 -131.42601 32001 ft 436 kts 233°
2026-04-20 19:17 31.62805 -131.47824 32003 ft 437 kts 233°
2026-04-20 19:18 31.58664 -131.53062 32003 ft 438 kts 233°
2026-04-20 19:18 31.54520 -131.58296 32011 ft 438 kts 233°
2026-04-20 19:19 31.50362 -131.63540 32009 ft 439 kts 233°
2026-04-20 19:19 31.46191 -131.68793 32011 ft 440 kts 233°
2026-04-20 19:20 31.42032 -131.74024 32012 ft 441 kts 233°
2026-04-20 19:20 31.37844 -131.79284 32015 ft 442 kts 233°
2026-04-20 19:21 31.33636 -131.84562 32075 ft 445 kts 233°
2026-04-20 19:21 31.31524 -131.87209 32368 ft 445 kts 233°
2026-04-20 19:21 31.29416 -131.89846 32771 ft 442 kts 233°
2026-04-20 19:21 31.27322 -131.92464 33166 ft 440 kts 233°
2026-04-20 19:22 31.25234 -131.95073 33522 ft 439 kts 233°
2026-04-20 19:22 31.23149 -131.97679 33823 ft 439 kts 233°
2026-04-20 19:22 31.21056 -132.00294 33950 ft 440 kts 233°
2026-04-20 19:23 31.16891 -132.05493 34025 ft 441 kts 233°
2026-04-20 19:23 31.12760 -132.10828 34021 ft 436 kts 239°
2026-04-20 19:24 31.09651 -132.16741 34029 ft 429 kts 247°
2026-04-20 19:24 31.07429 -132.23140 34033 ft 425 kts 254°
2026-04-20 19:25 31.05529 -132.29679 34031 ft 426 kts 255°
2026-04-20 19:25 31.03623 -132.36234 34033 ft 428 kts 255°
2026-04-20 19:26 31.01686 -132.42813 34034 ft 429 kts 254°
2026-04-20 19:26 30.99731 -132.49401 34033 ft 430 kts 254°
2026-04-20 19:27 30.97766 -132.55999 34036 ft 431 kts 254°
2026-04-20 19:27 30.95793 -132.62606 34037 ft 432 kts 254°
2026-04-20 19:28 30.93814 -132.69219 34041 ft 432 kts 254°
2026-04-20 19:28 30.91844 -132.75793 34040 ft 432 kts 254°
2026-04-20 19:29 30.89860 -132.82396 34036 ft 432 kts 254°
2026-04-20 19:29 30.87872 -132.89003 34046 ft 432 kts 254°
2026-04-20 19:30 30.85879 -132.95608 34043 ft 432 kts 254°
2026-04-20 19:30 30.83898 -133.02164 34049 ft 432 kts 254°
2026-04-20 19:31 30.81902 -133.08754 34050 ft 431 kts 254°
2026-04-20 19:31 30.79901 -133.15346 34046 ft 432 kts 254°
2026-04-20 19:32 30.77899 -133.21930 34050 ft 432 kts 254°
2026-04-20 19:32 30.75891 -133.28518 34048 ft 432 kts 254°
2026-04-20 19:33 30.73881 -133.35099 34049 ft 432 kts 254°
2026-04-20 19:33 30.71868 -133.41676 34052 ft 432 kts 254°
2026-04-20 19:34 30.69850 -133.48256 34057 ft 432 kts 254°
2026-04-20 19:34 30.67837 -133.54806 34056 ft 433 kts 254°
2026-04-20 19:35 30.65808 -133.61396 34059 ft 433 kts 254°
2026-04-20 19:35 30.63772 -133.67993 34054 ft 433 kts 254°
2026-04-20 19:36 30.61735 -133.74581 34055 ft 433 kts 254°
2026-04-20 19:36 30.59702 -133.81143 34057 ft 433 kts 255°
2026-04-20 19:37 30.57658 -133.87726 34059 ft 433 kts 255°
2026-04-20 19:37 30.55615 -133.94293 34063 ft 433 kts 255°
2026-04-20 19:38 30.53556 -134.00899 34065 ft 433 kts 255°
2026-04-20 19:38 30.51510 -134.07447 34062 ft 434 kts 255°
2026-04-20 19:39 30.49457 -134.14007 34064 ft 434 kts 255°
2026-04-20 19:39 30.47395 -134.20583 34068 ft 434 kts 255°
2026-04-20 19:40 30.45335 -134.27136 34067 ft 434 kts 255°
2026-04-20 19:40 30.43266 -134.33706 34069 ft 434 kts 255°
2026-04-20 19:41 30.41539 -134.39182 34070 ft 434 kts 255°
2026-04-20 19:41 30.39460 -134.45759 34069 ft 434 kts 255°
2026-04-20 19:42 30.37376 -134.52338 34076 ft 434 kts 255°
2026-04-20 19:42 30.35292 -134.58904 34081 ft 435 kts 255°
2026-04-20 19:43 30.32858 -134.66557 34079 ft 435 kts 255°
2026-04-20 19:43 30.30771 -134.73107 34068 ft 435 kts 255°
2026-04-20 19:44 30.28672 -134.79678 34080 ft 436 kts 255°
2026-04-20 19:44 30.26915 -134.85173 34079 ft 436 kts 255°
2026-04-20 19:45 30.24803 -134.91762 34082 ft 436 kts 255°
2026-04-20 19:45 30.22703 -134.98301 34082 ft 437 kts 254°
2026-04-20 19:46 30.20581 -135.04895 34080 ft 437 kts 254°
2026-04-20 19:46 30.18461 -135.11470 34075 ft 437 kts 254°
2026-04-20 19:47 30.16325 -135.18080 34079 ft 438 kts 254°
2026-04-20 19:47 30.14196 -135.24657 34087 ft 438 kts 254°
2026-04-20 19:48 30.12067 -135.31220 34084 ft 438 kts 254°
2026-04-20 19:48 30.09928 -135.37803 34090 ft 439 kts 254°
2026-04-20 19:49 30.07780 -135.44399 34091 ft 439 kts 254°
2026-04-20 19:49 30.05623 -135.51010 34091 ft 440 kts 254°
2026-04-20 19:50 30.03457 -135.57635 34094 ft 440 kts 254°
2026-04-20 19:50 30.01304 -135.64207 34094 ft 440 kts 253°
2026-04-20 19:51 29.99131 -135.70828 34094 ft 441 kts 253°
2026-04-20 19:51 29.96958 -135.77437 34099 ft 441 kts 253°
2026-04-20 19:52 29.94782 -135.84043 34100 ft 441 kts 253°
2026-04-20 19:52 29.92603 -135.90643 34103 ft 442 kts 253°
2026-04-20 19:53 29.90406 -135.97283 34100 ft 442 kts 253°
2026-04-20 19:53 29.88214 -136.03899 34094 ft 442 kts 253°
2026-04-20 19:54 29.86023 -136.10496 34100 ft 442 kts 253°
2026-04-20 19:54 29.83825 -136.17102 34106 ft 441 kts 253°
2026-04-20 19:55 29.81633 -136.23676 34109 ft 441 kts 253°
2026-04-20 19:55 29.79425 -136.30288 34107 ft 441 kts 253°
2026-04-20 19:56 29.77220 -136.36877 34109 ft 441 kts 253°
2026-04-20 19:56 29.75027 -136.43418 34109 ft 441 kts 253°
2026-04-20 19:57 29.72816 -136.50000 34110 ft 441 kts 253°
2026-04-20 19:57 29.70600 -136.56586 34113 ft 441 kts 253°
2026-04-20 19:58 29.68378 -136.63176 34114 ft 441 kts 253°
2026-04-20 19:58 29.66154 -136.69759 34115 ft 442 kts 253°
2026-04-20 19:59 29.63923 -136.76350 34115 ft 442 kts 253°
2026-04-20 19:59 29.61703 -136.82896 34117 ft 442 kts 252°
2026-04-20 20:00 29.59462 -136.89492 34120 ft 442 kts 252°
2026-04-20 20:00 29.57216 -136.96087 34121 ft 443 kts 252°
2026-04-20 20:01 29.54983 -137.02636 34124 ft 443 kts 252°
2026-04-20 20:01 29.52719 -137.09260 34122 ft 443 kts 252°
2026-04-20 20:02 29.50474 -137.15817 34126 ft 443 kts 252°
2026-04-20 20:02 29.48217 -137.22398 34127 ft 443 kts 252°
2026-04-20 20:03 29.45963 -137.28959 34128 ft 443 kts 252°
2026-04-20 20:03 29.43705 -137.35515 34131 ft 443 kts 252°
2026-04-20 20:04 29.41439 -137.42085 34129 ft 443 kts 252°
2026-04-20 20:04 29.39168 -137.48656 34124 ft 443 kts 252°
2026-04-20 20:05 29.36890 -137.55234 34130 ft 443 kts 252°
2026-04-20 20:05 29.34612 -137.61802 34129 ft 443 kts 252°
2026-04-20 20:06 29.32346 -137.68322 34136 ft 443 kts 252°
2026-04-20 20:06 29.30065 -137.74874 34136 ft 443 kts 252°
2026-04-20 20:07 29.27776 -137.81437 34139 ft 443 kts 252°
2026-04-20 20:07 29.25484 -137.87997 34137 ft 443 kts 252°
2026-04-20 20:08 29.23190 -137.94550 34137 ft 443 kts 252°
2026-04-20 20:08 29.20890 -138.01107 34142 ft 444 kts 252°
2026-04-20 20:09 29.18586 -138.07664 34137 ft 444 kts 252°
2026-04-20 20:09 29.16278 -138.14220 34144 ft 444 kts 252°
2026-04-20 20:10 29.13979 -138.20740 34141 ft 445 kts 252°
2026-04-20 20:10 29.11660 -138.27304 34137 ft 445 kts 252°
2026-04-20 20:11 29.09334 -138.33876 34149 ft 446 kts 252°
2026-04-20 20:11 29.07003 -138.40448 34150 ft 446 kts 252°
2026-04-20 20:12 29.04666 -138.47027 34147 ft 447 kts 252°
2026-04-20 20:12 29.02323 -138.53611 34147 ft 447 kts 252°
2026-04-20 20:13 28.98818 -138.63435 34143 ft 447 kts 252°
2026-04-20 20:13 28.96454 -138.70050 34149 ft 448 kts 252°
2026-04-20 20:14 28.94112 -138.76588 34144 ft 448 kts 252°
2026-04-20 20:14 28.91738 -138.83206 34150 ft 448 kts 252°
2026-04-20 20:15 28.89377 -138.89773 34153 ft 448 kts 252°
2026-04-20 20:15 28.87014 -138.96336 34149 ft 449 kts 252°
2026-04-20 20:16 28.84627 -139.02952 34150 ft 449 kts 251°
2026-04-20 20:16 28.82264 -139.09491 34152 ft 449 kts 251°
2026-04-20 20:17 28.79876 -139.16086 34155 ft 449 kts 251°
2026-04-20 20:17 28.77492 -139.22660 34156 ft 449 kts 251°
2026-04-20 20:18 28.75107 -139.29225 34155 ft 449 kts 251°
2026-04-20 20:18 28.72716 -139.35795 34155 ft 449 kts 251°
2026-04-20 20:19 28.70321 -139.42364 34154 ft 449 kts 251°
2026-04-20 20:19 28.67915 -139.48933 34155 ft 449 kts 251°
2026-04-20 20:20 28.65501 -139.55498 34155 ft 449 kts 250°
2026-04-20 20:20 28.63088 -139.62051 34161 ft 449 kts 250°
2026-04-20 20:21 28.60668 -139.68619 34157 ft 449 kts 250°
2026-04-20 20:21 28.58261 -139.75137 34154 ft 449 kts 250°
2026-04-20 20:22 28.55836 -139.81694 34161 ft 449 kts 250°
2026-04-20 20:22 28.53411 -139.88242 34157 ft 449 kts 250°
2026-04-20 20:23 28.50980 -139.94791 34161 ft 450 kts 250°
2026-04-20 20:23 28.48547 -140.01335 34159 ft 450 kts 250°
2026-04-20 20:24 28.46111 -140.07876 34162 ft 450 kts 250°
2026-04-20 20:24 28.43668 -140.14425 34162 ft 450 kts 250°
2026-04-20 20:25 28.41219 -140.20978 34161 ft 451 kts 250°
2026-04-20 20:25 28.38765 -140.27533 34165 ft 451 kts 249°
2026-04-20 20:26 28.36309 -140.34084 34161 ft 451 kts 249°
2026-04-20 20:26 28.33848 -140.40633 34157 ft 451 kts 249°
2026-04-20 20:27 28.31385 -140.47177 34154 ft 451 kts 249°
2026-04-20 20:27 28.28920 -140.53717 34166 ft 450 kts 249°
2026-04-20 20:28 28.26455 -140.60245 34160 ft 450 kts 249°
2026-04-20 20:28 28.24001 -140.66732 34170 ft 450 kts 249°
2026-04-20 20:29 28.21532 -140.73247 34168 ft 449 kts 249°
2026-04-20 20:29 28.19059 -140.79763 34165 ft 449 kts 249°
2026-04-20 20:30 28.17004 -140.85168 34168 ft 449 kts 249°
2026-04-20 20:30 28.14533 -140.91657 34161 ft 448 kts 249°
2026-04-20 20:31 28.12060 -140.98142 34171 ft 448 kts 249°
2026-04-20 20:31 28.09586 -141.04619 34169 ft 448 kts 249°
2026-04-20 20:32 28.07110 -141.11088 34168 ft 447 kts 249°
2026-04-20 20:32 28.04629 -141.17559 34166 ft 447 kts 248°
2026-04-20 20:33 28.02163 -141.23982 34170 ft 447 kts 248°
2026-04-20 20:33 27.99684 -141.30427 34176 ft 446 kts 248°
2026-04-20 20:34 27.97203 -141.36867 34173 ft 446 kts 248°
2026-04-20 20:34 27.94721 -141.43298 34170 ft 446 kts 248°
2026-04-20 20:35 27.92231 -141.49740 34168 ft 446 kts 248°
2026-04-20 20:35 27.89760 -141.56121 34170 ft 446 kts 248°
2026-04-20 20:36 27.87271 -141.62540 34171 ft 445 kts 248°
2026-04-20 20:36 27.84775 -141.68965 34170 ft 445 kts 248°
2026-04-20 20:37 27.82283 -141.75369 34171 ft 445 kts 248°
2026-04-20 20:37 27.79796 -141.81751 34172 ft 445 kts 248°
2026-04-20 20:38 27.77304 -141.88134 34171 ft 445 kts 248°
2026-04-20 20:38 27.74799 -141.94539 34178 ft 445 kts 247°
2026-04-20 20:39 27.72296 -142.00929 34178 ft 445 kts 247°
2026-04-20 20:39 27.69785 -142.07331 34175 ft 446 kts 247°
2026-04-20 20:40 27.67270 -142.13731 34179 ft 446 kts 247°
2026-04-20 20:40 27.64750 -142.20132 34176 ft 447 kts 247°
2026-04-20 20:41 27.62237 -142.26507 34176 ft 448 kts 246°
2026-04-20 20:41 27.59702 -142.32926 34177 ft 448 kts 246°
2026-04-20 20:42 27.57161 -142.39351 34182 ft 449 kts 246°
2026-04-20 20:42 27.54606 -142.45800 34180 ft 450 kts 246°
2026-04-20 20:43 27.52049 -142.52245 34178 ft 451 kts 246°
2026-04-20 20:43 27.49482 -142.58704 34181 ft 451 kts 246°
2026-04-20 20:44 27.46920 -142.65139 34181 ft 452 kts 246°
2026-04-20 20:44 27.44333 -142.71627 34182 ft 452 kts 246°
2026-04-20 20:45 27.41768 -142.78047 34185 ft 453 kts 246°
2026-04-20 20:45 27.39166 -142.84553 34187 ft 453 kts 246°
2026-04-20 20:46 27.36581 -142.91005 34187 ft 453 kts 246°
2026-04-20 20:46 27.34002 -142.97429 34186 ft 453 kts 246°
2026-04-20 20:47 27.31402 -143.03896 34184 ft 453 kts 246°
2026-04-20 20:47 27.28800 -143.10360 34185 ft 452 kts 246°
2026-04-20 20:48 27.26210 -143.16782 34187 ft 452 kts 246°
2026-04-20 20:48 27.23612 -143.23212 34186 ft 452 kts 246°
2026-04-20 20:49 27.21016 -143.29630 34188 ft 452 kts 246°
2026-04-20 20:49 27.18407 -143.36069 34186 ft 452 kts 246°
2026-04-20 20:50 27.15803 -143.42484 34188 ft 451 kts 246°
2026-04-20 20:50 27.13197 -143.48894 34192 ft 451 kts 246°
2026-04-20 20:51 27.10610 -143.55247 34190 ft 450 kts 246°
2026-04-20 20:51 27.08008 -143.61629 34192 ft 449 kts 246°
2026-04-20 20:52 27.05409 -143.67993 34191 ft 448 kts 246°
2026-04-20 20:52 27.02813 -143.74339 34192 ft 446 kts 246°
2026-04-20 20:53 27.00225 -143.80654 34199 ft 444 kts 246°
2026-04-20 20:53 26.97662 -143.86901 34194 ft 442 kts 246°
2026-04-20 20:54 26.95092 -143.93153 34192 ft 441 kts 246°
2026-04-20 20:54 26.92528 -143.99385 34188 ft 440 kts 246°
2026-04-20 20:55 26.89962 -144.05609 34195 ft 439 kts 246°
2026-04-20 20:55 26.87398 -144.11819 34197 ft 439 kts 246°
2026-04-20 20:56 26.84833 -144.18023 34195 ft 439 kts 246°
2026-04-20 20:56 26.82280 -144.24188 34197 ft 439 kts 246°
2026-04-20 20:57 26.79710 -144.30386 34193 ft 438 kts 246°
2026-04-20 20:57 26.77141 -144.36571 34193 ft 438 kts 246°
2026-04-20 20:58 26.74569 -144.42756 34194 ft 438 kts 246°
2026-04-20 20:58 26.71999 -144.48923 34193 ft 437 kts 246°
2026-04-20 20:59 26.69446 -144.55043 34197 ft 436 kts 246°
2026-04-20 20:59 26.66879 -144.61187 34196 ft 435 kts 246°
2026-04-20 21:00 26.64311 -144.67325 34205 ft 434 kts 246°
2026-04-20 21:00 26.61746 -144.73445 34193 ft 434 kts 246°
2026-04-20 21:01 26.59183 -144.79553 34199 ft 433 kts 245°
2026-04-20 21:01 26.56631 -144.85625 34197 ft 433 kts 245°
2026-04-20 21:02 26.54071 -144.91708 34199 ft 433 kts 245°
2026-04-20 21:02 26.51522 -144.97754 34199 ft 432 kts 245°
2026-04-20 21:03 26.48949 -145.03850 34195 ft 432 kts 245°
2026-04-20 21:03 26.46383 -145.09921 34196 ft 432 kts 245°
2026-04-20 21:04 26.43828 -145.15957 34194 ft 432 kts 245°
2026-04-20 21:04 26.41255 -145.22026 34194 ft 432 kts 245°
2026-04-20 21:05 26.38697 -145.28052 34192 ft 432 kts 245°
2026-04-20 21:05 26.36116 -145.34122 34196 ft 432 kts 245°
2026-04-20 21:06 26.33542 -145.40167 34192 ft 432 kts 245°
2026-04-20 21:06 26.30955 -145.46234 34195 ft 432 kts 245°
2026-04-20 21:07 26.28383 -145.52259 34194 ft 432 kts 245°
2026-04-20 21:07 26.25806 -145.58286 34190 ft 432 kts 245°
2026-04-20 21:08 26.23221 -145.64322 34197 ft 432 kts 245°
2026-04-20 21:08 26.20644 -145.70333 34194 ft 432 kts 244°
2026-04-20 21:09 26.18051 -145.76372 34198 ft 432 kts 244°
2026-04-20 21:09 26.15462 -145.82392 34195 ft 432 kts 244°
2026-04-20 21:10 26.12868 -145.88416 34192 ft 432 kts 244°
2026-04-20 21:10 26.10260 -145.94463 34193 ft 432 kts 244°
2026-04-20 21:11 26.07675 -146.00451 34190 ft 432 kts 244°
2026-04-20 21:11 26.05069 -146.06478 34195 ft 432 kts 244°
2026-04-20 21:12 26.02457 -146.12515 34195 ft 432 kts 244°
2026-04-20 21:12 25.99862 -146.18498 34196 ft 432 kts 244°
2026-04-20 21:13 25.97242 -146.24537 34184 ft 432 kts 244°
2026-04-20 21:13 25.94624 -146.30565 34192 ft 432 kts 244°
2026-04-20 21:14 25.92014 -146.36570 34191 ft 432 kts 244°
2026-04-20 21:14 25.89406 -146.42561 34187 ft 432 kts 244°
2026-04-20 21:15 25.86791 -146.48560 34190 ft 432 kts 244°
2026-04-20 21:15 25.84159 -146.54591 34186 ft 432 kts 244°
2026-04-20 21:16 25.81549 -146.60564 34182 ft 432 kts 244°
2026-04-20 21:16 25.78916 -146.66578 34188 ft 432 kts 244°
2026-04-20 21:17 25.76284 -146.72583 34184 ft 432 kts 244°
2026-04-20 21:17 25.73665 -146.78551 34187 ft 432 kts 244°
2026-04-20 21:18 25.71027 -146.84554 34186 ft 432 kts 244°
2026-04-20 21:18 25.68391 -146.90543 34181 ft 432 kts 244°
2026-04-20 21:19 25.65755 -146.96525 34182 ft 432 kts 243°
2026-04-20 21:20 25.62230 -147.04510 34181 ft 432 kts 243°
2026-04-20 21:20 25.59587 -147.10489 34181 ft 432 kts 243°
2026-04-20 21:21 25.56934 -147.16481 34181 ft 432 kts 243°
2026-04-20 21:21 25.54285 -147.22456 34178 ft 432 kts 243°
2026-04-20 21:22 25.51648 -147.28397 34177 ft 432 kts 243°
2026-04-20 21:22 25.48989 -147.34379 34178 ft 432 kts 243°
2026-04-20 21:23 25.46328 -147.40356 34178 ft 433 kts 243°
2026-04-20 21:23 25.43666 -147.46330 34175 ft 433 kts 243°
2026-04-20 21:24 25.41000 -147.52304 34175 ft 433 kts 243°
2026-04-20 21:24 25.38351 -147.58230 34170 ft 433 kts 243°
2026-04-20 21:25 25.35663 -147.64236 34172 ft 433 kts 243°
2026-04-20 21:25 25.32998 -147.70183 34171 ft 433 kts 243°
2026-04-20 21:26 25.30337 -147.76113 34174 ft 433 kts 243°
2026-04-20 21:26 25.27653 -147.82087 34170 ft 433 kts 243°
2026-04-20 21:27 25.24977 -147.88034 34172 ft 433 kts 243°
2026-04-20 21:27 25.22292 -147.93994 34168 ft 434 kts 243°
2026-04-20 21:28 25.19600 -147.99962 34169 ft 434 kts 243°